Location: Melara
(45.0500°N, 11.1833°E)
Time: 02:17:11
(UTC+00:00)

Cosmos 2219 Rocket - Pass Details

Date: 26 May 2022
Orbit: 827 x 847 km, 71.0° (Epoch: 26 June)

Event Time Altitude Azimuth Distance (km) Brightness Sun altitude
Exits shadow 00:43:10 10° 268° (W) 2,416 4.3 -20.7°
Maximum altitude 00:47:07 20° 314° (NW) 1,838 4.2 -20.4°
Drops below altitude 10° 00:51:10 10° 1° (N) 2,445 5.6 -20.1°
Sets 00:54:18 0° 18° (NNE) 3,385 6.9 -19.9°
